« Back
NWS Peachtree City, Ga » Text Product » GA Regional Weather Roundup


Printer-friendly Version
Current Version              Previous Versions:   1  2  3  4  5  6  7  8  9  

Regional Weather Roundup

408
ASUS42 KFFC 260603
RWRGA
WEATHER ROUNDUP FOR GEORGIA
NATIONAL WEATHER SERVICE PEACHTREE CITY GA
200 AM EDT SUN OCT 26 2014

NOTE: "FAIR" INDICATES FEW OR NO CLOUDS BELOW 12,000 FEET WITH NO
SIGNIFICANT WEATHER AND/OR OBSTRUCTIONS TO VISIBILITY.

* = USE WITH CAUTION. THE STATIONS MARKED WITH AN ASTERISK MAY NOT
REPORT WEATHER SUCH AS PRECIPITATION, FOG, OR THUNDER AND ARE NOT
QUALITY CONTROLLED BY NWS.

THE REMARK "TC" DENOTES TEMPERATURE READING IN DEGREES CELSIUS.

GAZ001>058-260700-
NORTH GEORGIA

CITY           SKY/WX    TMP DP  RH WIND       PRES   REMARKS
ATLANTA        CLEAR     60  52  74 W3        30.01F
6HR MIN TEMP:  60; 6HR MAX TEMP:  67;

ATHENS         CLEAR     58  51  78 NW5       29.98F
6HR MIN TEMP:  56; 6HR MAX TEMP:  64;

CHAMBLEE       CLEAR     59  53  80 NW7       30.01S
6HR MIN TEMP:  53; 6HR MAX TEMP:  62;

PEACHTREE CITY CLEAR     51  49  92 CALM      30.03F
6HR MIN TEMP:  51; 6HR MAX TEMP:  58;

ROME           CLEAR     54  53  97 CALM      30.02F
6HR MIN TEMP:  52; 6HR MAX TEMP:  66;

WEST ATLANTA   CLEAR     59  52  77 S3        30.01F
6HR MIN TEMP:  53; 6HR MAX TEMP:  63;

GAINESVILLE    CLEAR     61  53  75 W7        30.01F
6HR MIN TEMP:  60; 6HR MAX TEMP:  66;

CARTERSVILLE   CLEAR     53  51  93 CALM      30.03F
6HR MIN TEMP:  52; 6HR MAX TEMP:  61;



CITY           SKY/WX    TMP DP  RH WIND       PRES   REMARKS
DALTON*        CLEAR     50  50 100 CALM      30.03S
MARIETTA       CLEAR     63  57  80 NW9       30.01F
$$

GAZ059>098-102>109-260700-
CENTRAL GEORGIA

CITY           SKY/WX    TMP DP  RH WIND       PRES   REMARKS
AUGUSTA-BUSH   CLEAR     45  43  93 CALM      29.95F
6HR MIN TEMP:  45; 6HR MAX TEMP:  56;

AUGUSTA-DANIEL CLEAR     63  49  60 W5        29.95F
6HR MIN TEMP:  61; 6HR MAX TEMP:  70;

COLUMBUS       CLEAR     62  52  69 N6        30.02F
6HR MIN TEMP:  61; 6HR MAX TEMP:  69;

MACON          CLEAR     50  49  96 W6        29.99F
6HR MIN TEMP:  50; 6HR MAX TEMP:  60;

ROBINS AFB     CLEAR     52  51  95 CALM      29.98F


CITY           SKY/WX    TMP DP  RH WIND       PRES   REMARKS
LAGRANGE*      CLEAR     54  54  99 CALM      30.04S FOG
SYLVANIA*      CLEAR     54  53  95 CALM      29.96F
MILLEDGEVILLE* CLEAR     54  54 100 CALM      29.98F
$$

GAZ099>101-110>166-260700-
SOUTH GEORGIA

CITY           SKY/WX    TMP DP  RH WIND       PRES   REMARKS
SAVANNAH       CLEAR     55  49  80 CALM      29.97F
6HR MIN TEMP:  54; 6HR MAX TEMP:  62;

VALDOSTA       CLEAR     49  44  83 CALM      30.00S
6HR MIN TEMP:  49; 6HR MAX TEMP:  58;

ALMA           CLEAR     50  48  93 CALM      29.98S FOG
6HR MIN TEMP:  49; 6HR MAX TEMP:  60;

ST SIMONS      CLEAR     57  56  96 W6        29.97F
6HR MIN TEMP:  56; 6HR MAX TEMP:  62;

FT STEWART     CLEAR     50  47  91 CALM      29.96F
ALBANY         CLEAR     52  49  89 CALM      30.03F
HUNTER AFB     CLEAR     54  52  93 SW1       29.95F
MOODY AFB      CLEAR     54  47  78 CALM      29.99F
BRUNSWICK      CLEAR     54  52  94 CALM      29.99S


CITY           SKY/WX    TMP DP  RH WIND       PRES   REMARKS
BAINBRIDGE*    CLEAR     54  50  87 CALM      30.02F
MOULTRIE*      CLEAR     52  52 100 CALM      30.02S
VIDALIA*       CLEAR     55  50  82 CALM      29.98F
WAYCROSS*      CLEAR     54  53  97 SW3       29.99S
DOUGLAS*       CLEAR     52  50  93 CALM      30.00F
$$



USA.gov is the U.S. government's official web portal to all federal, state and local government web resources and services.